Regional Weather Roundup
Issued by NWS

Home | Current Version | Previous Version | Text Only | Print | Product List | Glossary Off
Versions: 1 2 3 4 5 6 7 8 9 10 11 12 13 14 15 16 17 18 19 20 21 22 23 24 25 26 27 28 29 30 31 32 33 34 35 36 37 38 39 40 41 42 43 44 45 46 47 48 49

000
ASUS45 KCYS 151910
RWRWY

WYOMING REGIONAL WEATHER ROUNDUP
NATIONAL WEATHER SERVICE CHEYENNE WY
100 PM MDT MON SEP 15 2014

NOTE:  "FAIR" INDICATES FEW OR NO CLOUDS BELOW 12,000 FEET
WITH NO SIGNIFICANT WEATHER AND/OR OBSTRUCTIONS TO VISIBILITY.

WYZ001-152000-
YELLOWSTONE NATIONAL PARK

CITY           SKY/WX    TMP DP  RH WIND       PRES   REMARKS
LK YELLOWSTONE   N/A     60  35  39 VRB3      30.34S
W YELLOWSTONE  NOT AVBL

$$
WYZ002>013-054>058-071-098>099-152000-
NORTHERN WYOMING

CITY           SKY/WX    TMP DP  RH WIND       PRES   REMARKS
JACKSON        SUNNY     64  32  29 CALM      30.27F
CODY           SUNNY     63  41  45 CALM      30.17F
GREYBULL       SUNNY     68  42  38 S5        30.14F
WORLAND        SUNNY     71  39  31 VRB5      30.14F
SHERIDAN       SUNNY     67  41  38 CALM      30.15F
BUFFALO        SUNNY     67  43  41 VRB6      30.18F
GILLETTE       SUNNY     68  42  38 S15       30.18F
HULETT         FAIR      68  39  34 MISG      30.21
NEWCASTLE      FAIR      63  37  39 SE7       30.25

$$
WYZ014>020-022>026-101>103-152000-
CENTRAL WYOMING

CITY           SKY/WX    TMP DP  RH WIND       PRES   REMARKS
BIG PINEY      MOSUNNY   64  32  30 SW5       30.32F
PINEDALE       CLEAR     70  28  21 S7        30.32F
DUBOIS         FAIR      72  27  18 W23G31    30.25F
LANDER         SUNNY     65  37  35 VRB3      30.21F
RIVERTON       SUNNY     66  37  34 SE5       30.22F
CASPER         SUNNY     70  38  31 S6        30.22F
DOUGLAS        SUNNY     70  41  34 SE14      30.23F

$$
WYZ021-027>030-104>119-152000-
SOUTHERN WYOMING

CITY           SKY/WX    TMP DP  RH WIND       PRES   REMARKS
EVANSTON       MOSUNNY   76  35  22 SW12G17   30.31F
KEMMERER       CLEAR     73  32  21 S8        30.32F
FORT BRIDGER   FAIR      71  38  29 NE3       30.34F
ROCK SPRINGS   SUNNY     75  32  20 W7        30.30F
DIXON          FAIR      71  41  33 W6        30.33F
RAWLINS        SUNNY     73  33  23 CALM      30.31F
SARATOGA       FAIR      72  27  18 NE3       30.33F
LARAMIE        SUNNY     70  24  17 CALM      30.33F
CHEYENNE       SUNNY     66  34  30 S15       30.33F
TORRINGTON     SUNNY     64  46  52 SE10      30.26F
PINE BLUFFS    FAIR      68  37  32 S8        30.31F

$$


USA.gov is the U.S. government's official web portal to all federal, state and local government web resources and services.